Year,Month,Day,Hour,Minute,Value (Times are PST for windspeed in km/hr)
2007,12,30,00,00,18.80
2007,12,30,00,01,20.10
2007,12,30,00,02,12.10
2007,12,30,00,03,12.90
2007,12,30,00,04,19.50
2007,12,30,00,05,21.80
2007,12,30,00,06,18.20
2007,12,30,00,07,14.50
2007,12,30,00,08,20.50
2007,12,30,00,09,15.10
2007,12,30,00,10,10.10
2007,12,30,00,11,16.30
2007,12,30,00,12,12.60
2007,12,30,00,13,11.70
2007,12,30,00,14,10.50
2007,12,30,00,15,12.30
2007,12,30,00,16,21.40
2007,12,30,00,17,13.00
2007,12,30,00,18,14.20
2007,12,30,00,19,13.50
2007,12,30,00,20,15.20
2007,12,30,00,21,22.50
2007,12,30,00,22,17.90
2007,12,30,00,23,21.90
2007,12,30,00,24,19.20
2007,12,30,00,25,20.80
2007,12,30,00,26,17.90
2007,12,30,00,27,21.60
2007,12,30,00,28,17.80
2007,12,30,00,29,14.60
2007,12,30,00,30,9.70
2007,12,30,00,31,16.60
2007,12,30,00,32,10.90
2007,12,30,00,33,10.30
2007,12,30,00,34,13.40
2007,12,30,00,35,11.70
2007,12,30,00,36,15.10
2007,12,30,00,37,9.50
2007,12,30,00,38,8.80
2007,12,30,00,39,9.30
2007,12,30,00,40,6.80
2007,12,30,00,41,14.10
2007,12,30,00,42,12.20
2007,12,30,00,43,7.20
2007,12,30,00,44,7.50
2007,12,30,00,45,13.00
2007,12,30,00,46,7.50
2007,12,30,00,47,4.70
2007,12,30,00,48,5.50
2007,12,30,00,49,4.80
2007,12,30,00,50,3.60
2007,12,30,00,51,1.70
2007,12,30,00,52,3.50
2007,12,30,00,53,4.30
2007,12,30,00,54,13.40
2007,12,30,00,55,6.10
2007,12,30,00,56,6.00
2007,12,30,00,57,4.00
2007,12,30,00,58,8.20
2007,12,30,00,59,6.20
2007,12,30,01,00,18.60
2007,12,30,01,01,11.50
2007,12,30,01,02,10.50
2007,12,30,01,03,6.60
2007,12,30,01,04,3.60
2007,12,30,01,05,6.40
2007,12,30,01,06,7.00
2007,12,30,01,07,7.30
2007,12,30,01,08,4.20
2007,12,30,01,09,4.00
2007,12,30,01,10,4.10
2007,12,30,01,11,7.50
2007,12,30,01,12,4.30
2007,12,30,01,13,5.60
2007,12,30,01,14,5.30
2007,12,30,01,15,9.70
2007,12,30,01,16,5.70
2007,12,30,01,17,6.90
2007,12,30,01,18,12.20
2007,12,30,01,19,6.30
2007,12,30,01,20,5.90
2007,12,30,01,21,8.00
2007,12,30,01,22,8.40
2007,12,30,01,23,3.60
2007,12,30,01,24,1.40
2007,12,30,01,25,1.70
2007,12,30,01,26,3.20
2007,12,30,01,27,15.50
2007,12,30,01,28,5.70
2007,12,30,01,29,2.70
2007,12,30,01,30,4.30
2007,12,30,01,31,5.70
2007,12,30,01,32,6.20
2007,12,30,01,33,7.90
2007,12,30,01,34,3.90
2007,12,30,01,35,12.00
2007,12,30,01,36,17.30
2007,12,30,01,37,11.40
2007,12,30,01,38,9.40
2007,12,30,01,39,12.30
2007,12,30,01,40,17.10
2007,12,30,01,41,28.40
2007,12,30,01,42,21.60
2007,12,30,01,43,13.40
2007,12,30,01,44,19.00
2007,12,30,01,45,23.70
2007,12,30,01,46,20.60
2007,12,30,01,47,18.20
2007,12,30,01,48,16.50
2007,12,30,01,49,19.40
2007,12,30,01,50,15.90
2007,12,30,01,51,16.80
2007,12,30,01,52,13.60
2007,12,30,01,53,11.50
2007,12,30,01,54,17.20
2007,12,30,01,55,10.70
2007,12,30,01,56,13.40
2007,12,30,01,57,8.10
2007,12,30,01,58,7.60
2007,12,30,01,59,7.80
2007,12,30,02,00,7.80
2007,12,30,02,01,7.70
2007,12,30,02,02,20.30
2007,12,30,02,03,27.00
2007,12,30,02,04,10.90
2007,12,30,02,05,10.20
2007,12,30,02,06,14.40
2007,12,30,02,07,19.90
2007,12,30,02,08,24.20
2007,12,30,02,09,22.00
2007,12,30,02,10,23.70
2007,12,30,02,11,17.20
2007,12,30,02,12,18.00
2007,12,30,02,13,20.10
2007,12,30,02,14,17.90
2007,12,30,02,15,16.10
2007,12,30,02,16,21.80
2007,12,30,02,17,22.00
2007,12,30,02,18,19.60
2007,12,30,02,19,17.90
2007,12,30,02,20,12.50
2007,12,30,02,21,13.80
2007,12,30,02,22,9.90
2007,12,30,02,23,10.60
2007,12,30,02,24,20.50
2007,12,30,02,25,17.30
2007,12,30,02,26,12.70
2007,12,30,02,27,11.80
2007,12,30,02,28,13.00
2007,12,30,02,29,9.30
2007,12,30,02,30,7.80
2007,12,30,02,31,13.30
2007,12,30,02,32,23.80
2007,12,30,02,33,19.50
2007,12,30,02,34,24.20
2007,12,30,02,35,19.80
2007,12,30,02,36,20.50
2007,12,30,02,37,18.40
2007,12,30,02,38,16.90
2007,12,30,02,39,17.30
2007,12,30,02,40,16.30
2007,12,30,02,41,22.50
2007,12,30,02,42,16.60
2007,12,30,02,43,14.90
2007,12,30,02,44,19.50
2007,12,30,02,45,16.10
2007,12,30,02,46,10.30
2007,12,30,02,47,15.80
2007,12,30,02,48,17.00
2007,12,30,02,49,17.40
2007,12,30,02,50,12.30
2007,12,30,02,51,16.40
2007,12,30,02,52,9.10
2007,12,30,02,53,9.50
2007,12,30,02,54,10.40
2007,12,30,02,55,18.20
2007,12,30,02,56,20.90
2007,12,30,02,57,21.10
2007,12,30,02,58,22.40
2007,12,30,02,59,25.20
2007,12,30,03,00,17.70
2007,12,30,03,01,14.60
2007,12,30,03,02,16.00
2007,12,30,03,03,12.50
2007,12,30,03,04,14.00
2007,12,30,03,05,20.70
2007,12,30,03,06,20.70
2007,12,30,03,07,18.90
2007,12,30,03,08,15.90
2007,12,30,03,09,13.20
2007,12,30,03,10,15.90
2007,12,30,03,11,15.00
2007,12,30,03,12,15.20
2007,12,30,03,13,13.40
2007,12,30,03,14,8.90
2007,12,30,03,15,11.70
2007,12,30,03,16,8.90
2007,12,30,03,17,10.60
2007,12,30,03,18,12.20
2007,12,30,03,19,11.80
2007,12,30,03,20,9.90
2007,12,30,03,21,8.30
2007,12,30,03,22,7.60
2007,12,30,03,23,8.20
2007,12,30,03,24,7.40
2007,12,30,03,25,7.30
2007,12,30,03,26,5.70
2007,12,30,03,27,7.20
2007,12,30,03,28,15.90
2007,12,30,03,29,13.30
2007,12,30,03,30,11.60
2007,12,30,03,31,9.40
2007,12,30,03,32,7.80
2007,12,30,03,33,9.00
2007,12,30,03,34,16.20
2007,12,30,03,35,17.90
2007,12,30,03,36,33.60
2007,12,30,03,37,43.60
2007,12,30,03,38,44.70
2007,12,30,03,39,31.20
2007,12,30,03,40,21.70
2007,12,30,03,41,15.10
2007,12,30,03,42,17.60
2007,12,30,03,43,18.80
2007,12,30,03,44,15.10
2007,12,30,03,45,13.60
2007,12,30,03,46,18.30
2007,12,30,03,47,16.40
2007,12,30,03,48,14.20
2007,12,30,03,49,18.60
2007,12,30,03,50,15.50
2007,12,30,03,51,17.50
2007,12,30,03,52,13.90
2007,12,30,03,53,16.20
2007,12,30,03,54,14.30
2007,12,30,03,55,14.90
2007,12,30,03,56,8.70
2007,12,30,03,57,8.90
2007,12,30,03,58,11.70
2007,12,30,03,59,12.20
2007,12,30,04,00,12.20
2007,12,30,04,01,19.20
2007,12,30,04,02,11.40
2007,12,30,04,03,13.60
2007,12,30,04,04,15.50
2007,12,30,04,05,13.90
2007,12,30,04,06,16.10
2007,12,30,04,07,8.00
2007,12,30,04,08,9.80
2007,12,30,04,09,11.40
2007,12,30,04,10,9.10
2007,12,30,04,11,7.10
2007,12,30,04,12,5.90
2007,12,30,04,13,7.20
2007,12,30,04,14,9.00
2007,12,30,04,15,13.40
2007,12,30,04,16,16.30
2007,12,30,04,17,9.90
2007,12,30,04,18,10.80
2007,12,30,04,19,12.30
2007,12,30,04,20,10.80
2007,12,30,04,21,9.50
2007,12,30,04,22,15.90
2007,12,30,04,23,11.70
2007,12,30,04,24,10.40
2007,12,30,04,25,11.00
2007,12,30,04,26,12.60
2007,12,30,04,27,10.80
2007,12,30,04,28,10.00
2007,12,30,04,29,13.70
2007,12,30,04,30,13.30
2007,12,30,04,31,11.20
2007,12,30,04,32,11.20
2007,12,30,04,33,12.90
2007,12,30,04,34,11.50
2007,12,30,04,35,10.00
2007,12,30,04,36,7.40
2007,12,30,04,37,11.10
2007,12,30,04,38,6.30
2007,12,30,04,39,6.00
2007,12,30,04,40,6.40
2007,12,30,04,41,5.30
2007,12,30,04,42,4.10
2007,12,30,04,43,7.00
2007,12,30,04,44,6.90
2007,12,30,04,45,5.80
2007,12,30,04,46,5.70
2007,12,30,04,47,4.10
2007,12,30,04,48,5.80
2007,12,30,04,49,5.40
2007,12,30,04,50,5.10
2007,12,30,04,51,7.30
2007,12,30,04,52,4.30
2007,12,30,04,53,7.40
2007,12,30,04,54,7.70
2007,12,30,04,55,6.10
2007,12,30,04,56,5.80
2007,12,30,04,57,6.00
2007,12,30,04,58,5.60
2007,12,30,04,59,5.60
2007,12,30,05,00,6.30
2007,12,30,05,01,6.20
2007,12,30,05,02,5.60
2007,12,30,05,03,6.30
2007,12,30,05,04,6.90
2007,12,30,05,05,9.40
2007,12,30,05,06,10.10
2007,12,30,05,07,5.20
2007,12,30,05,08,8.50
2007,12,30,05,09,7.60
2007,12,30,05,10,10.50
2007,12,30,05,11,9.80
2007,12,30,05,12,10.30
2007,12,30,05,13,10.60
2007,12,30,05,14,7.90
2007,12,30,05,15,7.40
2007,12,30,05,16,8.30
2007,12,30,05,17,5.10
2007,12,30,05,18,7.30
2007,12,30,05,19,6.00
2007,12,30,05,20,4.50
2007,12,30,05,21,8.90
2007,12,30,05,22,9.80
2007,12,30,05,23,7.20
2007,12,30,05,24,4.80
2007,12,30,05,25,4.90
2007,12,30,05,26,6.00
2007,12,30,05,27,5.50
2007,12,30,05,28,5.20
2007,12,30,05,29,5.10
2007,12,30,05,30,4.30
2007,12,30,05,31,4.80
2007,12,30,05,32,2.40
2007,12,30,05,33,3.40
2007,12,30,05,34,4.10
2007,12,30,05,35,4.40
2007,12,30,05,36,6.60
2007,12,30,05,37,4.20
2007,12,30,05,38,5.10
2007,12,30,05,39,5.00
2007,12,30,05,40,5.90
2007,12,30,05,41,6.70
2007,12,30,05,42,6.00
2007,12,30,05,43,8.40
2007,12,30,05,44,5.60
2007,12,30,05,45,10.10
2007,12,30,05,46,8.90
2007,12,30,05,47,10.00
2007,12,30,05,48,10.10
2007,12,30,05,49,7.10
2007,12,30,05,50,6.50
2007,12,30,05,51,7.90
2007,12,30,05,52,5.60
2007,12,30,05,53,4.30
2007,12,30,05,54,4.20
2007,12,30,05,55,4.60
2007,12,30,05,56,3.20
2007,12,30,05,57,5.20
2007,12,30,05,58,4.30
2007,12,30,05,59,3.90
2007,12,30,06,00,6.20
2007,12,30,06,01,4.70
2007,12,30,06,02,5.90
2007,12,30,06,03,9.20
2007,12,30,06,04,16.90
2007,12,30,06,05,23.90
2007,12,30,06,06,12.30
2007,12,30,06,07,18.30
2007,12,30,06,08,16.10
2007,12,30,06,09,17.60
2007,12,30,06,10,9.30
2007,12,30,06,11,10.10
2007,12,30,06,12,12.00
2007,12,30,06,13,9.70
2007,12,30,06,14,13.00
2007,12,30,06,15,11.30
2007,12,30,06,16,9.80
2007,12,30,06,17,7.10
2007,12,30,06,18,5.80
2007,12,30,06,19,7.10
2007,12,30,06,20,10.30
2007,12,30,06,21,7.80
2007,12,30,06,22,7.70
2007,12,30,06,23,8.90
2007,12,30,06,24,12.40
2007,12,30,06,25,17.00
2007,12,30,06,26,13.40
2007,12,30,06,27,12.50
2007,12,30,06,28,11.40
2007,12,30,06,29,25.70
2007,12,30,06,30,14.50
2007,12,30,06,31,23.50
2007,12,30,06,32,20.80
2007,12,30,06,33,20.70
2007,12,30,06,34,17.00
2007,12,30,06,35,24.20
2007,12,30,06,36,16.50
2007,12,30,06,37,17.00
2007,12,30,06,38,17.70
2007,12,30,06,39,17.70
2007,12,30,06,40,16.10
2007,12,30,06,41,15.20
2007,12,30,06,42,16.70
2007,12,30,06,43,13.70
2007,12,30,06,44,20.40
2007,12,30,06,45,11.40
2007,12,30,06,46,7.50
2007,12,30,06,47,8.10
2007,12,30,06,48,11.80
2007,12,30,06,49,11.30
2007,12,30,06,50,13.90
2007,12,30,06,51,16.20
2007,12,30,06,52,18.60
2007,12,30,06,53,14.20
2007,12,30,06,54,7.50
2007,12,30,06,55,15.90
2007,12,30,06,56,9.30
2007,12,30,06,57,6.40
2007,12,30,06,58,9.50
2007,12,30,06,59,6.80
2007,12,30,07,00,8.90
2007,12,30,07,01,9.70
2007,12,30,07,02,6.90
2007,12,30,07,03,6.70
2007,12,30,07,04,11.90
2007,12,30,07,05,14.80
2007,12,30,07,06,10.00
2007,12,30,07,07,12.30
2007,12,30,07,08,5.90
2007,12,30,07,09,6.60
2007,12,30,07,10,6.40
2007,12,30,07,11,8.20
2007,12,30,07,12,8.70
2007,12,30,07,13,9.00
2007,12,30,07,14,10.30
2007,12,30,07,15,8.00
2007,12,30,07,16,8.00
2007,12,30,07,17,10.50
2007,12,30,07,18,6.60
2007,12,30,07,19,6.80
2007,12,30,07,20,6.10
2007,12,30,07,21,7.00
2007,12,30,07,22,8.70
2007,12,30,07,23,8.20
2007,12,30,07,24,9.20
2007,12,30,07,25,7.80
2007,12,30,07,26,11.30
2007,12,30,07,27,7.90
2007,12,30,07,28,7.90
2007,12,30,07,29,9.20
2007,12,30,07,30,7.80
2007,12,30,07,31,12.00
2007,12,30,07,32,11.30
2007,12,30,07,33,8.50
2007,12,30,07,34,12.90
2007,12,30,07,35,14.50
2007,12,30,07,36,10.10
2007,12,30,07,37,14.00
2007,12,30,07,38,9.70
2007,12,30,07,39,11.60
2007,12,30,07,40,9.40
2007,12,30,07,41,8.80
2007,12,30,07,42,9.50
2007,12,30,07,43,13.30
2007,12,30,07,44,11.50
2007,12,30,07,45,7.70
2007,12,30,07,46,11.60
2007,12,30,07,47,15.20
2007,12,30,07,48,15.40
2007,12,30,07,49,16.00
2007,12,30,07,50,15.90
2007,12,30,07,51,20.00
2007,12,30,07,52,22.50
2007,12,30,07,53,16.30
2007,12,30,07,54,16.60
2007,12,30,07,55,21.20
2007,12,30,07,56,19.90
2007,12,30,07,57,17.00
2007,12,30,07,58,18.90
2007,12,30,07,59,13.00
2007,12,30,08,00,18.50
2007,12,30,08,01,14.80
2007,12,30,08,02,17.40
2007,12,30,08,03,17.50
2007,12,30,08,04,22.40
2007,12,30,08,05,26.20
2007,12,30,08,06,20.80
2007,12,30,08,07,17.10
2007,12,30,08,08,16.50
2007,12,30,08,09,26.30
2007,12,30,08,10,29.40
2007,12,30,08,11,13.50
2007,12,30,08,12,14.80
2007,12,30,08,13,17.80
2007,12,30,08,14,19.10
2007,12,30,08,15,10.60
2007,12,30,08,16,20.00
2007,12,30,08,17,12.40
2007,12,30,08,18,10.50
2007,12,30,08,19,22.10
2007,12,30,08,20,19.20
2007,12,30,08,21,20.50
2007,12,30,08,22,19.00
2007,12,30,08,23,16.00
2007,12,30,08,24,10.90
2007,12,30,08,25,21.20
2007,12,30,08,26,29.20
2007,12,30,08,27,19.10
2007,12,30,08,28,16.00
2007,12,30,08,29,22.00
2007,12,30,08,30,24.10
2007,12,30,08,31,21.00
2007,12,30,08,32,25.40
2007,12,30,08,33,17.70
2007,12,30,08,34,16.90
2007,12,30,08,35,18.10
2007,12,30,08,36,14.90
2007,12,30,08,37,18.90
2007,12,30,08,38,13.50
2007,12,30,08,39,12.90
2007,12,30,08,40,10.30
2007,12,30,08,41,9.10
2007,12,30,08,42,11.30
2007,12,30,08,43,16.60
2007,12,30,08,44,18.30
2007,12,30,08,45,17.10
2007,12,30,08,46,15.90
2007,12,30,08,47,15.10
2007,12,30,08,48,11.80
2007,12,30,08,49,13.70
2007,12,30,08,50,13.20
2007,12,30,08,51,12.50
2007,12,30,08,52,7.60
2007,12,30,08,53,9.30
2007,12,30,08,54,9.80
2007,12,30,08,55,8.10
2007,12,30,08,56,7.50
2007,12,30,08,57,8.10
2007,12,30,08,58,8.80
2007,12,30,08,59,8.70
2007,12,30,09,00,9.20
2007,12,30,09,01,9.80
2007,12,30,09,02,7.70
2007,12,30,09,03,8.80
2007,12,30,09,04,11.40
2007,12,30,09,05,9.10
2007,12,30,09,06,14.60
2007,12,30,09,07,9.80
2007,12,30,09,08,11.00
2007,12,30,09,09,8.60
2007,12,30,09,10,8.80
2007,12,30,09,11,10.00
2007,12,30,09,12,11.40
2007,12,30,09,13,12.00
2007,12,30,09,14,15.00
2007,12,30,09,15,10.60
2007,12,30,09,16,6.20
2007,12,30,09,17,10.30
2007,12,30,09,18,6.80
2007,12,30,09,19,6.90
2007,12,30,09,20,6.50
2007,12,30,09,21,5.20
2007,12,30,09,22,5.50
2007,12,30,09,23,10.00
2007,12,30,09,24,5.10
2007,12,30,09,25,9.60
2007,12,30,09,26,8.70
2007,12,30,09,27,8.00
2007,12,30,09,28,10.50
2007,12,30,09,29,10.10
2007,12,30,09,30,13.30
2007,12,30,09,31,11.50
2007,12,30,09,32,10.70
2007,12,30,09,33,13.00
2007,12,30,09,34,15.30
2007,12,30,09,35,8.00
2007,12,30,09,36,6.50
2007,12,30,09,37,10.00
2007,12,30,09,38,9.80
2007,12,30,09,39,6.70
2007,12,30,09,40,6.30
2007,12,30,09,41,7.60
2007,12,30,09,42,6.80
2007,12,30,09,43,5.40
2007,12,30,09,44,6.70
2007,12,30,09,45,10.40
2007,12,30,09,46,6.80
2007,12,30,09,47,5.80
2007,12,30,09,48,2.20
2007,12,30,09,49,3.20
2007,12,30,09,50,3.30
2007,12,30,09,51,5.40
2007,12,30,09,52,10.50
2007,12,30,09,53,7.60
2007,12,30,09,54,8.40
2007,12,30,09,55,7.60
2007,12,30,09,56,9.20
2007,12,30,09,57,8.10
2007,12,30,09,58,8.80
2007,12,30,09,59,7.10
2007,12,30,10,00,5.50
2007,12,30,10,01,6.30
2007,12,30,10,02,5.90
2007,12,30,10,03,7.50
2007,12,30,10,04,8.00
2007,12,30,10,05,6.10
2007,12,30,10,06,6.20
2007,12,30,10,07,8.20
2007,12,30,10,08,13.50
2007,12,30,10,09,10.10
2007,12,30,10,10,12.20
2007,12,30,10,11,7.50
2007,12,30,10,12,9.40
2007,12,30,10,13,17.10
2007,12,30,10,14,14.80
2007,12,30,10,15,14.70
2007,12,30,10,16,13.10
2007,12,30,10,17,19.40
2007,12,30,10,18,13.60
2007,12,30,10,19,16.50
2007,12,30,10,20,9.50
2007,12,30,10,21,13.50
2007,12,30,10,22,17.80
2007,12,30,10,23,16.10
2007,12,30,10,24,11.60
2007,12,30,10,25,22.10
2007,12,30,10,26,10.20
2007,12,30,10,27,15.10
2007,12,30,10,28,12.80
2007,12,30,10,29,15.20
2007,12,30,10,30,17.00
2007,12,30,10,31,14.10
2007,12,30,10,32,15.10
2007,12,30,10,33,9.80
2007,12,30,10,34,13.70
2007,12,30,10,35,17.30
2007,12,30,10,36,18.40
2007,12,30,10,37,10.20
2007,12,30,10,38,12.60
2007,12,30,10,39,15.80
2007,12,30,10,40,9.20
2007,12,30,10,41,13.40
2007,12,30,10,42,12.90
2007,12,30,10,43,10.40
2007,12,30,10,44,16.60
2007,12,30,10,45,14.30
2007,12,30,10,46,11.30
2007,12,30,10,47,11.40
2007,12,30,10,48,10.20
2007,12,30,10,49,14.00
2007,12,30,10,50,14.00
2007,12,30,10,51,9.30
2007,12,30,10,52,10.30
2007,12,30,10,53,11.30
2007,12,30,10,54,10.00
2007,12,30,10,55,9.40
2007,12,30,10,56,8.20
2007,12,30,10,57,6.40
2007,12,30,10,58,11.60
2007,12,30,10,59,7.40
2007,12,30,11,00,8.60
2007,12,30,11,01,9.50
2007,12,30,11,02,8.60
2007,12,30,11,03,4.00
2007,12,30,11,04,4.60
2007,12,30,11,05,8.90
2007,12,30,11,06,8.20
2007,12,30,11,07,7.50
2007,12,30,11,08,9.10
2007,12,30,11,09,10.60
2007,12,30,11,10,7.40
2007,12,30,11,11,8.30
2007,12,30,11,12,9.30
2007,12,30,11,13,6.30
2007,12,30,11,14,6.50
2007,12,30,11,15,7.30
2007,12,30,11,16,11.70
2007,12,30,11,17,11.10
2007,12,30,11,18,11.30
2007,12,30,11,19,10.40
2007,12,30,11,20,13.80
2007,12,30,11,21,9.40
2007,12,30,11,22,8.00
2007,12,30,11,23,8.40
2007,12,30,11,24,8.10
2007,12,30,11,25,12.40
2007,12,30,11,26,13.50
2007,12,30,11,27,6.30
2007,12,30,11,28,8.90
2007,12,30,11,29,12.90
2007,12,30,11,30,6.50
2007,12,30,11,31,11.50
2007,12,30,11,32,11.80
2007,12,30,11,33,11.70
2007,12,30,11,34,14.80
2007,12,30,11,35,15.00
2007,12,30,11,36,12.90
2007,12,30,11,37,11.80
2007,12,30,11,38,8.30
2007,12,30,11,39,8.10
2007,12,30,11,40,8.20
2007,12,30,11,41,7.30
2007,12,30,11,42,5.10
2007,12,30,11,43,4.30
2007,12,30,11,44,5.40
2007,12,30,11,45,8.30
2007,12,30,11,46,9.50
2007,12,30,11,47,7.20
2007,12,30,11,48,5.30
2007,12,30,11,49,9.00
2007,12,30,11,50,15.50
2007,12,30,11,51,7.40
2007,12,30,11,52,7.50
2007,12,30,11,53,5.60
2007,12,30,11,54,7.30
2007,12,30,11,55,9.40
2007,12,30,11,56,9.50
2007,12,30,11,57,10.50
2007,12,30,11,58,12.10
2007,12,30,11,59,7.80
2007,12,30,12,00,9.80
2007,12,30,12,01,10.30
2007,12,30,12,02,11.00
2007,12,30,12,03,10.90
2007,12,30,12,04,10.70
2007,12,30,12,05,12.40
2007,12,30,12,06,15.60
2007,12,30,12,07,13.70
2007,12,30,12,08,16.20
2007,12,30,12,09,21.20
2007,12,30,12,10,15.10
2007,12,30,12,11,15.30
2007,12,30,12,12,10.10
2007,12,30,12,13,8.90
2007,12,30,12,14,12.10
2007,12,30,12,15,9.70
2007,12,30,12,16,12.60
2007,12,30,12,17,13.00
2007,12,30,12,18,14.40
2007,12,30,12,19,11.50
2007,12,30,12,20,9.30
2007,12,30,12,21,7.90
2007,12,30,12,22,7.70
2007,12,30,12,23,9.30
2007,12,30,12,24,8.20
2007,12,30,12,25,7.10
2007,12,30,12,26,7.90
2007,12,30,12,27,7.40
2007,12,30,12,28,19.30
2007,12,30,12,29,18.50
2007,12,30,12,30,9.00
2007,12,30,12,31,8.20
2007,12,30,12,32,10.90
2007,12,30,12,33,6.20
2007,12,30,12,34,10.90
2007,12,30,12,35,24.90
2007,12,30,12,36,12.20
2007,12,30,12,37,13.70
2007,12,30,12,38,9.20
2007,12,30,12,39,14.90
2007,12,30,12,40,11.60
2007,12,30,12,41,8.30
2007,12,30,12,42,9.30
2007,12,30,12,43,8.90
2007,12,30,12,44,7.60
2007,12,30,12,45,8.90
2007,12,30,12,46,10.20
2007,12,30,12,47,8.20
2007,12,30,12,48,7.20
2007,12,30,12,49,6.40
2007,12,30,12,50,7.90
2007,12,30,12,51,6.80
2007,12,30,12,52,6.10
2007,12,30,12,53,8.20
2007,12,30,12,54,15.10
2007,12,30,12,55,14.60
2007,12,30,12,56,8.60
2007,12,30,12,57,13.40
2007,12,30,12,58,6.70
2007,12,30,12,59,11.40
2007,12,30,13,00,9.20
2007,12,30,13,01,24.20
2007,12,30,13,02,11.20
2007,12,30,13,03,8.40
2007,12,30,13,04,7.00
2007,12,30,13,05,6.80
2007,12,30,13,06,9.20
2007,12,30,13,07,8.10
2007,12,30,13,08,7.00
2007,12,30,13,09,8.60
2007,12,30,13,10,9.90
2007,12,30,13,11,6.20
2007,12,30,13,12,6.40
2007,12,30,13,13,6.30
2007,12,30,13,14,8.00
2007,12,30,13,15,4.40
2007,12,30,13,16,7.10
2007,12,30,13,17,6.10
2007,12,30,13,18,9.30
2007,12,30,13,19,12.90
2007,12,30,13,20,12.40
2007,12,30,13,21,11.90
2007,12,30,13,22,14.80
2007,12,30,13,23,10.50
2007,12,30,13,24,14.40
2007,12,30,13,25,11.40
2007,12,30,13,26,9.20
2007,12,30,13,27,9.00
2007,12,30,13,28,6.50
2007,12,30,13,29,7.70
2007,12,30,13,30,4.50
2007,12,30,13,31,6.20
2007,12,30,13,32,10.90
2007,12,30,13,33,8.00
2007,12,30,13,34,9.70
2007,12,30,13,35,7.40
2007,12,30,13,36,9.70
2007,12,30,13,37,5.90
2007,12,30,13,38,6.70
2007,12,30,13,39,3.50
2007,12,30,13,40,5.00
2007,12,30,13,41,6.60
2007,12,30,13,42,7.20
2007,12,30,13,43,6.10
2007,12,30,13,44,7.20
2007,12,30,13,45,7.00
2007,12,30,13,46,5.30
2007,12,30,13,47,4.30
2007,12,30,13,48,6.60
2007,12,30,13,49,3.70
2007,12,30,13,50,5.10
2007,12,30,13,51,9.20
2007,12,30,13,52,10.10
2007,12,30,13,53,11.50
2007,12,30,13,54,8.90
2007,12,30,13,55,11.20
2007,12,30,13,56,11.10
2007,12,30,13,57,12.20
2007,12,30,13,58,6.40
2007,12,30,13,59,6.60
2007,12,30,14,00,8.60
2007,12,30,14,01,5.80
2007,12,30,14,02,4.80
2007,12,30,14,03,6.00
2007,12,30,14,04,5.50
2007,12,30,14,05,6.10
2007,12,30,14,06,3.10
2007,12,30,14,07,2.00
2007,12,30,14,08,11.10
2007,12,30,14,09,13.30
2007,12,30,14,10,12.20
2007,12,30,14,11,8.50
2007,12,30,14,12,5.80
2007,12,30,14,13,8.10
2007,12,30,14,14,6.70
2007,12,30,14,15,10.10
2007,12,30,14,16,9.10
2007,12,30,14,17,8.30
2007,12,30,14,18,7.40
2007,12,30,14,19,8.00
2007,12,30,14,20,7.90
2007,12,30,14,21,7.40
2007,12,30,14,22,8.60
2007,12,30,14,23,8.50
2007,12,30,14,24,6.60
2007,12,30,14,25,9.30
2007,12,30,14,26,6.40
2007,12,30,14,27,6.90
2007,12,30,14,28,13.70
2007,12,30,14,29,15.90
2007,12,30,14,30,12.30
2007,12,30,14,31,14.40
2007,12,30,14,32,18.90
2007,12,30,14,33,14.60
2007,12,30,14,34,15.00
2007,12,30,14,35,16.80
2007,12,30,14,36,11.50
2007,12,30,14,37,12.60
2007,12,30,14,38,9.90
2007,12,30,14,39,14.20
2007,12,30,14,40,15.10
2007,12,30,14,41,8.70
2007,12,30,14,42,9.80
2007,12,30,14,43,9.40
2007,12,30,14,44,17.50
2007,12,30,14,45,8.50
2007,12,30,14,46,12.00
2007,12,30,14,47,10.30
2007,12,30,14,48,17.20
2007,12,30,14,49,13.40
2007,12,30,14,50,11.30
2007,12,30,14,51,12.60
2007,12,30,14,52,15.90
2007,12,30,14,53,14.80
2007,12,30,14,54,12.80
2007,12,30,14,55,13.80
2007,12,30,14,56,13.20
2007,12,30,14,57,21.20
2007,12,30,14,58,10.70
2007,12,30,14,59,14.50
2007,12,30,15,00,10.90
2007,12,30,15,01,12.00
2007,12,30,15,02,11.50
2007,12,30,15,03,13.80
2007,12,30,15,04,17.50
2007,12,30,15,05,14.70
2007,12,30,15,06,14.30
2007,12,30,15,07,15.80
2007,12,30,15,08,12.50
2007,12,30,15,09,8.90
2007,12,30,15,10,13.90
2007,12,30,15,11,15.80
2007,12,30,15,12,11.50
2007,12,30,15,13,8.20
2007,12,30,15,14,12.60
2007,12,30,15,15,15.90
2007,12,30,15,16,13.70
2007,12,30,15,17,15.10
2007,12,30,15,18,19.50
2007,12,30,15,19,17.60
2007,12,30,15,20,11.30
2007,12,30,15,21,16.60
2007,12,30,15,22,10.10
2007,12,30,15,23,15.20
2007,12,30,15,24,16.50
2007,12,30,15,25,12.70
2007,12,30,15,26,10.00
2007,12,30,15,27,11.30
2007,12,30,15,28,11.50
2007,12,30,15,29,12.90
2007,12,30,15,30,16.10
2007,12,30,15,31,9.60
2007,12,30,15,32,8.00
2007,12,30,15,33,9.50
2007,12,30,15,34,11.80
2007,12,30,15,35,13.40
2007,12,30,15,36,8.10
2007,12,30,15,37,3.60
2007,12,30,15,38,9.70
2007,12,30,15,39,12.00
2007,12,30,15,40,10.20
2007,12,30,15,41,11.00
2007,12,30,15,42,12.20
2007,12,30,15,43,15.30
2007,12,30,15,44,13.00
2007,12,30,15,45,11.60
2007,12,30,15,46,10.80
2007,12,30,15,47,8.20
2007,12,30,15,48,10.50
2007,12,30,15,49,15.00
2007,12,30,15,50,17.30
2007,12,30,15,51,10.60
2007,12,30,15,52,10.70
2007,12,30,15,53,11.20
2007,12,30,15,54,15.30
2007,12,30,15,55,8.40
2007,12,30,15,56,10.70
2007,12,30,15,57,6.90
2007,12,30,15,58,8.40
2007,12,30,15,59,8.80
2007,12,30,16,00,9.00
2007,12,30,16,01,9.30
2007,12,30,16,02,12.70
2007,12,30,16,03,6.50
2007,12,30,16,04,9.40
2007,12,30,16,05,14.30
2007,12,30,16,06,14.10
2007,12,30,16,07,10.90
2007,12,30,16,08,14.80
2007,12,30,16,09,13.60
2007,12,30,16,10,9.90
2007,12,30,16,11,8.90
2007,12,30,16,12,11.80
2007,12,30,16,13,8.50
2007,12,30,16,14,15.20
2007,12,30,16,15,13.30
2007,12,30,16,16,13.80
2007,12,30,16,17,15.20
2007,12,30,16,18,12.40
2007,12,30,16,19,13.00
2007,12,30,16,20,15.40
2007,12,30,16,21,17.70
2007,12,30,16,22,20.30
2007,12,30,16,23,15.70
2007,12,30,16,24,16.70
2007,12,30,16,25,16.50
2007,12,30,16,26,19.10
2007,12,30,16,27,13.90
2007,12,30,16,28,7.80
2007,12,30,16,29,11.40
2007,12,30,16,30,8.90
2007,12,30,16,31,11.60
2007,12,30,16,32,12.30
2007,12,30,16,33,14.80
2007,12,30,16,34,10.10
2007,12,30,16,35,21.80
2007,12,30,16,36,15.00
2007,12,30,16,37,21.40
2007,12,30,16,38,11.10
2007,12,30,16,39,9.80
2007,12,30,16,40,13.40
2007,12,30,16,41,8.90
2007,12,30,16,42,6.70
2007,12,30,16,43,8.70
2007,12,30,16,44,17.00
2007,12,30,16,45,15.90
2007,12,30,16,46,20.40
2007,12,30,16,47,13.60
2007,12,30,16,48,11.10
2007,12,30,16,49,11.80
2007,12,30,16,50,10.60
2007,12,30,16,51,16.50
2007,12,30,16,52,13.00
2007,12,30,16,53,6.80
2007,12,30,16,54,8.10
2007,12,30,16,55,8.30
2007,12,30,16,56,12.70
2007,12,30,16,57,12.50
2007,12,30,16,58,9.40
2007,12,30,16,59,5.30
2007,12,30,17,00,8.60
2007,12,30,17,01,7.60
2007,12,30,17,02,12.50
2007,12,30,17,03,8.90
2007,12,30,17,04,7.80
2007,12,30,17,05,15.70
2007,12,30,17,06,10.50
2007,12,30,17,07,16.20
2007,12,30,17,08,19.50
2007,12,30,17,09,12.90
2007,12,30,17,10,11.00
2007,12,30,17,11,11.80
2007,12,30,17,12,17.60
2007,12,30,17,13,8.90
2007,12,30,17,14,10.60
2007,12,30,17,15,11.30
2007,12,30,17,16,11.00
2007,12,30,17,17,17.40
2007,12,30,17,18,18.30
2007,12,30,17,19,13.30
2007,12,30,17,20,9.90
2007,12,30,17,21,15.40
2007,12,30,17,22,14.10
2007,12,30,17,23,20.80
2007,12,30,17,24,11.40
2007,12,30,17,25,15.40
2007,12,30,17,26,16.30
2007,12,30,17,27,17.20
2007,12,30,17,28,11.80
2007,12,30,17,29,13.30
2007,12,30,17,30,21.40
2007,12,30,17,31,16.40
2007,12,30,17,32,9.00
2007,12,30,17,33,14.20
2007,12,30,17,34,13.90
2007,12,30,17,35,15.00
2007,12,30,17,36,11.90
2007,12,30,17,37,12.60
2007,12,30,17,38,14.60
2007,12,30,17,39,15.40